Regional Weather Roundup
Issued by NWS

Home | Current Version | Previous Version | Graphics & Text | Print | Product List | Glossary On
Versions: 1 2 3 4 5 6 7 8 9 10 11 12 13 14 15 16 17 18 19 20 21 22 23 24 25 26 27 28 29 30 31 32 33 34 35 36 37 38 39 40 41 42 43 44 45 46 47 48 49 50
000
ASUS43 KLSX 211359
RWRMO

WEATHER SUMMARY FOR MISSOURI
NATIONAL WEATHER SERVICE SPRINGFIELD MO
800 AM CST SUN DEC 21 2014

NOTE: "FAIR" INDICATES FEW OR NO CLOUDS BELOW 12,000 FEET WITH NO
       SIGNIFICANT WEATHER AND/OR OBSTRUCTIONS TO VISIBILITY.
       CURRENT SKY AND/OR WEATHER CONDITIONS ARE NOT AVAILABLE FOR
       CHILLICOTHE AND FARMINGTON.

MOZ001>031-035>038-043-044-053-054-211500-
...NORTHERN AND WESTERN MISSOURI...

CITY           SKY/WX    TMP DP  RH WIND       PRES   REMARKS
KANSAS CTY INT CLOUDY    38  36  92 S12       30.03F
KANSAS C DTWN  CLOUDY    40  36  86 S8        30.04F
LEE`S SUMMIT   CLOUDY    39  37  92 S9        30.05F FOG
ST JOSEPH      CLOUDY    38  35  89 S15       30.01F WCI  29
CHILLICOTHE      N/A     40  37  89 S6        30.07F
KIRKSVILLE     CLOUDY    39  36  89 S8        30.09F

$$
MOZ066>068-077>081-088>096-101>105-211500-
...SOUTHWEST MISSOURI...

CITY           SKY/WX    TMP DP  RH WIND       PRES   REMARKS
SPRINGFIELD    CLOUDY    41  37  86 S12       30.09F

$$
MOZ032>034-039>042-045>050-055>058-069>072-211500-
...CENTRAL MISSOURI...

CITY           SKY/WX    TMP DP  RH WIND       PRES   REMARKS
COLUMBIA       CLOUDY    41  36  82 SE6       30.12F
JEFFERSON CITY CLOUDY    41  36  82 E6        30.14F
ROLLA          CLOUDY    38  34  85 SE8       30.13F
SEDALIA        CLOUDY    42  35  76 S9        30.09F
WARRENSBURG    CLOUDY    39  37  93 SE8       30.07F FOG
OSAGE BEACH    CLOUDY    41  34  75 S6        30.12F

$$
MOZ051-052-059>065-211500-
...EAST CENTRAL MISSOURI...

CITY           SKY/WX    TMP DP  RH WIND       PRES   REMARKS
ST LOUIS INTL  CLOUDY    41  32  70 SE10      30.20F
SPIRIT OF STL  CLOUDY    40  33  76 SE3       30.19S
ST CHARLES     CLOUDY    39  34  82 SE10      30.19F

$$
MOZ072>076-082>087-097>100-106>115-211500-
...SOUTH CENTRAL AND SOUTHEAST MISSOURI...

CITY           SKY/WX    TMP DP  RH WIND       PRES   REMARKS
CAPE GIRARDEAU CLEAR     30  29  96 E3        30.25F FOG
FARMINGTON     CLOUDY    37  34  87 E5        30.21S
POPLAR BLUFF   CLOUDY    36  29  75 CALM      30.22F
WEST PLAINS    CLOUDY    38  34  85 SE8       30.16F

$$


USA.gov is the U.S. government's official web portal to all federal, state and local government web resources and services.